CW0126 Weather Reports


Display with metric or nautical units.
time (UTC)temp
F
wind
direction
speed
MPH
gust
MPH
rain 1hr
in
rain 24hr
in
rain mn
in
humidity
%
barometer
mb
20260507203035 43 0 0.0 0.0 0.00 0.00 0.00 100 1015.3
20260507201548 44 0 0.0 0.0 0.00 0.00 0.00 100 1015.1
20260507200044 47 0 0.0 0.0 0.00 0.00 0.00 5 1014.9
20260507194535 48 0 0.0 0.0 0.00 0.00 0.00 16 1014.8
20260507193041 50 0 0.0 0.0 0.00 0.00 0.00 22 1014.6
20260507191537 51 0 0.0 0.0 0.00 0.00 0.00 28 1014.6
20260507190043 52 0 0.0 0.0 0.00 0.00 0.00 32 1014.7
20260507184541 53 0 0.0 0.0 0.00 0.00 0.00 33 1014.4
20260507183049 53 0 0.0 0.0 0.00 0.00 0.00 33 1014.5
20260507181534 53 0 0.0 0.0 0.00 0.00 0.00 33 1014.5
20260507180046 53 0 0.0 0.0 0.00 0.00 0.00 33 1014.4
20260507174542 55 0 0.0 0.0 0.00 0.00 0.00 30 1014.4
20260507173055 57 0 0.0 0.0 0.00 0.00 0.00 26 1014.5
20260507171538 56 145 1.0 4.0 0.00 0.00 0.00 28 1014.4
20260507170047 56 0 0.0 3.0 0.00 0.00 0.00 27 1014.3
20260507164535 58 152 1.0 7.0 0.00 0.00 0.00 24 1014.3
20260507163037 60 250 2.0 6.0 0.00 0.00 0.00 19 1014.1
20260507161549 59 134 1.0 6.0 0.00 0.00 0.00 19 1014.2
20260507160040 57 302 2.0 6.0 0.00 0.00 0.00 20 1014.4
20260507154542 56 217 2.0 7.0 0.00 0.00 0.00 24 1014.2
20260507153037 56 150 2.0 5.0 0.00 0.00 0.00 23 1014.2
20260507151535 56 250 3.0 7.0 0.00 0.00 0.00 23 1014.2
20260507150036 55 233 2.0 9.0 0.00 0.00 0.00 27 1014.4
20260507144537 55 122 1.0 6.0 0.00 0.00 0.00 27 1014.4
20260507143037 55 80 2.0 6.0 0.00 0.00 0.00 26 1014.4
20260507141538 55 314 2.0 8.0 0.00 0.00 0.00 27 1014.4
20260507140038 56 105 4.0 8.0 0.00 0.00 0.00 25 1014.4
20260507134540 56 132 1.0 8.0 0.00 0.00 0.00 25 1014.5
20260507133044 56 0 1.0 6.0 0.00 0.00 0.00 24 1014.2
20260507131546 56 306 2.0 6.0 0.00 0.00 0.00 24 1014.4
20260507130038 57 193 2.0 9.0 0.00 0.00 0.00 21 1014.4
20260507124538 58 297 0.0 5.0 0.00 0.00 0.00 19 1014.4
20260507123040 57 0 1.0 5.0 0.00 0.00 0.00 20 1014.3
20260507121538 57 116 0.0 4.0 0.00 0.00 0.00 17 1014.3
20260507120037 56 0 0.0 1.0 0.00 0.00 0.00 19 1014.3
20260507114537 56 0 1.0 4.0 0.00 0.00 0.00 19 1014.3
20260507113047 57 0 0.0 2.0 0.00 0.00 0.00 17 1014.4
20260507111542 57 0 0.0 5.0 0.00 0.00 0.00 15 1014.4
20260507110054 56 273 1.0 5.0 0.00 0.00 0.00 14 1014.5
20260507104543 55 115 2.0 6.0 0.00 0.00 0.00 14 1014.7
20260507103053 54 82 0.0 4.0 0.00 0.00 0.00 13 1014.8
20260507101539 53 106 2.0 7.0 0.00 0.00 0.00 13 1015.1
20260507100055 53 0 0.0 3.0 0.00 0.00 0.00 11 1015.1
20260507094538 52 0 0.0 0.0 0.00 0.00 0.00 9 1015.2
20260507093037 52 0 0.0 0.0 0.00 0.00 0.00 5 1015.2
20260507091542 51 0 0.0 0.0 0.00 0.00 0.00 1 1015.1
20260507090036 50 0 0.0 0.0 0.00 0.00 0.00 100 1015.2
20260507084543 49 0 0.0 0.0 0.00 0.00 0.00 100 1015.1
20260507083044 48 0 0.0 0.0 0.00 0.00 0.00 100 1015.1
20260507081538 48 0 0.0 0.0 0.00 0.00 0.00 100 1015.2
20260507080045 46 0 0.0 0.0 0.00 0.00 0.00 100 1015.2
20260507074537 45 0 0.0 0.0 0.00 0.00 0.00 100 1015.2
20260507073040 44 0 0.0 0.0 0.00 0.00 0.00 100 1015.0
20260507071539 44 0 0.0 0.0 0.00 0.00 0.00 100 1015.1
20260507070058 43 0 0.0 0.0 0.00 0.00 0.00 100 1015.0
20260507064541 43 0 0.0 0.0 0.00 0.00 0.00 100 1015.0
20260507063036 42 0 0.0 0.0 0.00 0.00 0.00 100 1014.9
20260507061540 42 0 0.0 0.0 0.00 0.00 0.00 100 1015.0
20260507060038 42 0 0.0 0.0 0.00 0.00 0.00 100 1014.9
20260507054554 42 0 0.0 0.0 0.00 0.00 0.00 100 1014.9
20260507053038 42 0 0.0 0.0 0.00 0.00 0.00 100 1014.9
20260507051541 42 0 0.0 0.0 0.00 0.00 0.00 100 1014.8
20260507050049 42 0 0.0 0.0 0.00 0.00 0.00 100 1014.8
20260507044544 42 0 0.0 0.0 0.00 0.00 0.00 100 1014.7
20260507043038 42 0 0.0 0.0 0.00 0.00 0.00 100 1014.7
20260507041542 42 0 0.0 0.0 0.00 0.00 0.00 100 1014.7
20260507040040 42 0 0.0 0.0 0.00 0.00 0.00 100 1014.7
20260507034539 42 0 0.0 0.0 0.00 0.00 0.00 100 1014.7
20260507033039 42 0 0.0 0.0 0.00 0.00 0.00 100 1014.5
20260507031539 42 0 0.0 0.0 0.00 0.00 0.00 100 1014.6
20260507030037 42 0 0.0 0.0 0.00 0.00 0.00 100 1014.6
20260507024538 42 0 0.0 0.0 0.00 0.00 0.00 100 1014.7
20260507023040 42 0 0.0 0.0 0.00 0.00 0.00 100 1014.6
20260507021539 42 0 0.0 0.0 0.00 0.00 0.00 100 1014.6
20260507020045 42 0 0.0 0.0 0.00 0.00 0.00 100 1014.7
20260507014542 42 0 0.0 0.0 0.00 0.00 0.00 100 1014.7
20260507013044 42 0 0.0 0.0 0.00 0.00 0.00 100 1014.6
20260507011542 42 0 0.0 0.0 0.00 0.00 0.00 100 1014.7
20260507010410 42 0 0.0 0.0 0.00 0.00 0.00 100 1014.8
20260507004539 42 0 0.0 0.0 0.00 0.00 0.00 100 1014.7
20260507003037 42 0 0.0 0.0 0.00 0.00 0.00 100 1014.8
20260507001554 42 0 0.0 0.0 0.00 0.00 0.00 100 1014.9
20260507000038 42 0 0.0 0.0 0.00 0.00 0.00 100 1014.9
20260506234554 41 0 0.0 0.0 0.00 0.00 0.00 100 1014.9
20260506233044 41 0 0.0 0.0 0.00 0.00 0.00 100 1014.9
20260506231536 41 0 0.0 0.0 0.00 0.00 0.00 100 1015.0
20260506230039 41 0 0.0 0.0 0.00 0.00 0.00 100 1014.9
20260506224537 40 0 0.0 0.0 0.00 0.00 0.00 100 1014.8
20260506223039 40 0 0.0 0.0 0.00 0.00 0.00 100 1014.7
20260506221551 40 0 0.0 0.0 0.00 0.00 0.00 100 1014.7
20260506220045 40 0 0.0 0.0 0.00 0.00 0.00 100 1014.8
20260506214539 40 0 0.0 0.0 0.00 0.00 0.00 100 1014.7
20260506213043 40 0 0.0 0.0 0.00 0.00 0.00 100 1014.9
20260506211544 40 0 0.0 0.0 0.00 0.00 0.00 100 1014.6
20260506210044 41 0 0.0 0.0 0.00 0.00 0.00 100 1014.5
20260506204539 43 0 0.0 0.0 0.00 0.00 0.00 100 1014.5